SWA4229 KSJC-KBUR

Flight info

Callsign SWA4229
Flight time 0h 52m
Altitude 25000
Route SPTNS1 VLREE EBAYE BURGL HONZK ROKKR3
Aircraft B737/M-SDE2E3FGHIRWXY/LB1

Departure

Time 2026-05-05 05:05
Airport Norman Y. Mineta San Jose International Airport (KSJC)

Arrival

Time 2026-05-05 05:57
Airport Hollywood Burbank/Bob Hope Airport (KBUR)
Time Latitude Longitude Altitude Speed Heading
2026-05-05 04:27 37.36626 -121.92673 52 ft 0 kts 49°
2026-05-05 04:28 37.36598 -121.92642 52 ft 0 kts 49°
2026-05-05 04:28 37.36597 -121.92645 52 ft 0 kts 49°
2026-05-05 04:54 37.36591 -121.92652 52 ft 2 kts 49°
2026-05-05 04:54 37.36581 -121.92667 52 ft 2 kts 49°
2026-05-05 04:55 37.36572 -121.92681 52 ft 2 kts 49°
2026-05-05 04:55 37.36562 -121.92696 53 ft 2 kts 73°
2026-05-05 04:55 37.36560 -121.92715 53 ft 2 kts 97°
2026-05-05 04:55 37.36565 -121.92733 52 ft 2 kts 123°
2026-05-05 04:56 37.36571 -121.92741 52 ft 1 kts 138°
2026-05-05 04:56 37.36573 -121.92744 52 ft 1 kts 142°
2026-05-05 04:56 37.36576 -121.92747 52 ft 0 kts 140°
2026-05-05 04:58 37.36563 -121.92733 52 ft 3 kts 140°
2026-05-05 04:59 37.36549 -121.92718 53 ft 3 kts 140°
2026-05-05 04:59 37.36503 -121.92696 53 ft 10 kts 184°
2026-05-05 04:59 37.36417 -121.92665 54 ft 16 kts 139°
2026-05-05 04:59 37.36317 -121.92557 56 ft 21 kts 138°
2026-05-05 05:00 37.36196 -121.92423 57 ft 24 kts 138°
2026-05-05 05:00 37.36060 -121.92274 59 ft 27 kts 139°
2026-05-05 05:00 37.35918 -121.92120 61 ft 27 kts 139°
2026-05-05 05:00 37.35779 -121.91969 62 ft 24 kts 139°
2026-05-05 05:01 37.35655 -121.91835 63 ft 22 kts 139°
2026-05-05 05:01 37.35540 -121.91708 64 ft 20 kts 139°
2026-05-05 05:01 37.35486 -121.91649 65 ft 0 kts 138°
2026-05-05 05:01 37.35484 -121.91647 65 ft 2 kts 138°
2026-05-05 05:02 37.35456 -121.91615 65 ft 8 kts 138°
2026-05-05 05:02 37.35397 -121.91550 66 ft 11 kts 139°
2026-05-05 05:02 37.35340 -121.91488 66 ft 9 kts 140°
2026-05-05 05:02 37.35321 -121.91476 66 ft 0 kts 164°
2026-05-05 05:03 37.35320 -121.91475 66 ft 0 kts 164°
2026-05-05 05:03 37.35318 -121.91474 66 ft 1 kts 166°
2026-05-05 05:03 37.35286 -121.91483 66 ft 8 kts 218°
2026-05-05 05:03 37.35226 -121.91560 66 ft 17 kts 229°
2026-05-05 05:04 37.35142 -121.91685 66 ft 16 kts 236°
2026-05-05 05:04 37.35178 -121.91794 66 ft 18 kts 321°
2026-05-05 05:04 37.35362 -121.91992 64 ft 62 kts 319°
2026-05-05 05:04 37.35854 -121.92530 59 ft 122 kts 319°
2026-05-05 05:05 37.36598 -121.93344 275 ft 149 kts 319°
2026-05-05 05:05 37.37377 -121.94137 871 ft 149 kts 322°
2026-05-05 05:05 37.38129 -121.94971 1578 ft 152 kts 317°
2026-05-05 05:05 37.38942 -121.95901 2263 ft 165 kts 319°
2026-05-05 05:06 37.39831 -121.96886 2932 ft 181 kts 319°
2026-05-05 05:06 37.40920 -121.97761 3579 ft 199 kts 345°
2026-05-05 05:06 37.42334 -121.97786 4308 ft 215 kts
2026-05-05 05:06 37.43812 -121.97156 4883 ft 240 kts 32°
2026-05-05 05:07 37.44970 -121.95502 5031 ft 271 kts 66°
2026-05-05 05:07 37.45103 -121.93108 5907 ft 282 kts 105°
2026-05-05 05:07 37.44189 -121.91048 7240 ft 274 kts 130°
2026-05-05 05:07 37.42795 -121.89396 8091 ft 285 kts 139°
2026-05-05 05:08 37.41269 -121.87806 9071 ft 289 kts 139°
2026-05-05 05:08 37.39727 -121.86182 10032 ft 294 kts 137°
2026-05-05 05:08 37.38163 -121.84507 10799 ft 305 kts 137°
2026-05-05 05:08 37.36529 -121.82747 11662 ft 312 kts 136°
2026-05-05 05:09 37.34882 -121.80974 12589 ft 316 kts 136°
2026-05-05 05:09 37.33234 -121.79199 13488 ft 319 kts 135°
2026-05-05 05:09 37.31550 -121.77347 14335 ft 324 kts 134°
2026-05-05 05:09 37.29876 -121.75442 15252 ft 326 kts 133°
2026-05-05 05:10 37.28208 -121.73537 16073 ft 330 kts 133°
2026-05-05 05:10 37.26492 -121.71584 16936 ft 333 kts 133°
2026-05-05 05:10 37.24800 -121.69665 17754 ft 335 kts 133°
2026-05-05 05:10 37.23046 -121.67677 18556 ft 339 kts 132°
2026-05-05 05:11 37.21284 -121.65678 18962 ft 345 kts 132°
2026-05-05 05:11 37.19505 -121.63666 19036 ft 346 kts 132°
2026-05-05 05:11 37.17716 -121.61649 19038 ft 344 kts 132°
2026-05-05 05:11 37.15933 -121.59635 19656 ft 349 kts 132°
2026-05-05 05:12 37.14157 -121.57639 20684 ft 344 kts 131°
2026-05-05 05:12 37.12354 -121.55601 21269 ft 351 kts 131°
2026-05-05 05:12 37.10554 -121.53568 22008 ft 352 kts 130°
2026-05-05 05:12 37.08727 -121.51507 22659 ft 355 kts 130°
2026-05-05 05:13 37.06875 -121.49422 23334 ft 357 kts 129°
2026-05-05 05:13 37.05035 -121.47366 23833 ft 364 kts 130°
2026-05-05 05:13 37.03078 -121.45273 24480 ft 367 kts 131°
2026-05-05 05:13 37.01136 -121.43239 24939 ft 371 kts 131°
2026-05-05 05:14 36.99129 -121.41113 25045 ft 376 kts 130°
2026-05-05 05:14 36.97160 -121.39015 25038 ft 372 kts 131°
2026-05-05 05:14 36.95211 -121.36940 25039 ft 367 kts 131°
2026-05-05 05:14 36.93272 -121.34890 25028 ft 365 kts 131°
2026-05-05 05:15 36.91317 -121.32808 25035 ft 368 kts 131°
2026-05-05 05:15 36.89369 -121.30730 25018 ft 370 kts 131°
2026-05-05 05:15 36.87394 -121.28649 25035 ft 369 kts 132°
2026-05-05 05:15 36.85456 -121.26593 25021 ft 366 kts 131°
2026-05-05 05:16 36.83522 -121.24515 25030 ft 368 kts 131°
2026-05-05 05:16 36.81574 -121.22454 25020 ft 368 kts 132°
2026-05-05 05:16 36.79615 -121.20397 25018 ft 366 kts 132°
2026-05-05 05:16 36.77680 -121.18330 25017 ft 369 kts 131°
2026-05-05 05:17 36.75720 -121.16242 25011 ft 370 kts 132°
2026-05-05 05:17 36.73753 -121.14185 25003 ft 367 kts 133°
2026-05-05 05:17 36.71815 -121.12138 25002 ft 366 kts 132°
2026-05-05 05:17 36.69893 -121.10088 25006 ft 368 kts 132°
2026-05-05 05:18 36.67925 -121.08003 25002 ft 368 kts 132°
2026-05-05 05:18 36.65994 -121.05975 25002 ft 367 kts 133°
2026-05-05 05:18 36.64043 -121.03931 25001 ft 367 kts 133°
2026-05-05 05:18 36.62077 -121.01873 24999 ft 367 kts 132°
2026-05-05 05:19 36.60135 -120.99812 25000 ft 367 kts 133°
2026-05-05 05:19 36.58158 -120.97787 24992 ft 367 kts 133°
2026-05-05 05:19 36.56195 -120.95800 24991 ft 369 kts 134°
2026-05-05 05:19 36.54201 -120.93793 24996 ft 369 kts 134°
2026-05-05 05:20 36.52206 -120.91780 24988 ft 369 kts 134°
2026-05-05 05:20 36.50217 -120.89763 24989 ft 367 kts 134°
2026-05-05 05:20 36.48232 -120.87749 24997 ft 369 kts 134°
2026-05-05 05:20 36.46254 -120.85744 25007 ft 369 kts 134°
2026-05-05 05:21 36.44269 -120.83730 25001 ft 368 kts 135°
2026-05-05 05:21 36.42290 -120.81718 24982 ft 369 kts 134°
2026-05-05 05:21 36.40315 -120.79717 24997 ft 369 kts 135°
2026-05-05 05:21 36.38323 -120.77700 25007 ft 369 kts 135°
2026-05-05 05:22 36.36312 -120.75665 24989 ft 369 kts 135°
2026-05-05 05:22 36.34353 -120.73684 24990 ft 368 kts 135°
2026-05-05 05:22 36.32366 -120.71677 24998 ft 368 kts 135°
2026-05-05 05:22 36.30391 -120.69681 24994 ft 369 kts 135°
2026-05-05 05:23 36.28405 -120.67677 24993 ft 368 kts 135°
2026-05-05 05:23 36.26424 -120.65680 24996 ft 368 kts 135°
2026-05-05 05:23 36.24417 -120.63658 24996 ft 370 kts 136°
2026-05-05 05:23 36.22416 -120.61645 24993 ft 370 kts 136°
2026-05-05 05:24 36.20430 -120.59646 24996 ft 369 kts 136°
2026-05-05 05:24 36.18458 -120.57664 24992 ft 369 kts 136°
2026-05-05 05:24 36.16447 -120.55643 24996 ft 370 kts 136°
2026-05-05 05:24 36.14460 -120.53648 24999 ft 369 kts 137°
2026-05-05 05:25 36.12470 -120.51652 24981 ft 369 kts 136°
2026-05-05 05:25 36.10477 -120.49654 24994 ft 369 kts 136°
2026-05-05 05:25 36.08496 -120.47669 25001 ft 369 kts 136°
2026-05-05 05:25 36.06495 -120.45664 24998 ft 370 kts 137°
2026-05-05 05:26 36.04502 -120.43670 24989 ft 369 kts 137°
2026-05-05 05:26 36.02499 -120.41667 24996 ft 369 kts 137°
2026-05-05 05:26 36.00512 -120.39681 24993 ft 370 kts 137°
2026-05-05 05:26 35.98508 -120.37681 24986 ft 370 kts 137°
2026-05-05 05:27 35.96505 -120.35681 25000 ft 370 kts 138°
2026-05-05 05:27 35.94493 -120.33675 24993 ft 371 kts 138°
2026-05-05 05:27 35.90479 -120.29677 24997 ft 370 kts 138°
2026-05-05 05:28 35.88473 -120.27683 24992 ft 371 kts 139°
2026-05-05 05:28 35.86406 -120.25717 24994 ft 371 kts 142°
2026-05-05 05:28 35.84261 -120.24000 24994 ft 373 kts 146°
2026-05-05 05:28 35.82037 -120.22337 24994 ft 374 kts 146°
2026-05-05 05:29 35.79803 -120.20681 24994 ft 374 kts 146°
2026-05-05 05:29 35.77557 -120.19009 24994 ft 373 kts 146°
2026-05-05 05:29 35.75333 -120.17346 24992 ft 373 kts 146°
2026-05-05 05:29 35.73119 -120.15687 24997 ft 374 kts 146°
2026-05-05 05:30 35.70895 -120.14017 24993 ft 374 kts 146°
2026-05-05 05:30 35.68660 -120.12355 24997 ft 374 kts 147°
2026-05-05 05:30 35.66384 -120.10856 24995 ft 376 kts 152°
2026-05-05 05:30 35.63954 -120.09600 24998 ft 377 kts 156°
2026-05-05 05:31 35.61511 -120.08464 25002 ft 378 kts 158°
2026-05-05 05:31 35.59144 -120.07388 24991 ft 378 kts 158°
2026-05-05 05:31 35.56679 -120.06272 24993 ft 376 kts 158°
2026-05-05 05:31 35.54192 -120.05145 25003 ft 380 kts 158°
2026-05-05 05:32 35.51677 -120.04002 25004 ft 391 kts 159°
2026-05-05 05:32 35.49107 -120.02833 25001 ft 391 kts 159°
2026-05-05 05:32 35.46574 -120.01685 24998 ft 383 kts 158°
2026-05-05 05:32 35.44078 -120.00557 25000 ft 382 kts 160°
2026-05-05 05:33 35.41555 -119.99416 25002 ft 385 kts 161°
2026-05-05 05:33 35.39050 -119.98283 25003 ft 383 kts 161°
2026-05-05 05:33 35.36586 -119.97169 25003 ft 377 kts 162°
2026-05-05 05:33 35.34134 -119.96060 25012 ft 370 kts 162°
2026-05-05 05:34 35.31728 -119.94974 25008 ft 372 kts 162°
2026-05-05 05:34 35.29292 -119.93876 25004 ft 374 kts 162°
2026-05-05 05:34 35.26856 -119.92779 25009 ft 373 kts 162°
2026-05-05 05:34 35.24404 -119.91673 25002 ft 372 kts 162°
2026-05-05 05:35 35.21970 -119.90577 25003 ft 371 kts 162°
2026-05-05 05:35 35.19553 -119.89488 25001 ft 371 kts 162°
2026-05-05 05:35 35.17151 -119.88408 25007 ft 371 kts 162°
2026-05-05 05:35 35.14705 -119.87309 25002 ft 371 kts 162°
2026-05-05 05:36 35.12333 -119.86113 24996 ft 372 kts 157°
2026-05-05 05:36 35.10055 -119.84616 24993 ft 373 kts 150°
2026-05-05 05:36 35.07922 -119.82767 24994 ft 376 kts 144°
2026-05-05 05:36 35.05876 -119.80732 24998 ft 378 kts 142°
2026-05-05 05:37 35.03872 -119.78672 24995 ft 378 kts 142°
2026-05-05 05:37 35.01840 -119.76579 25005 ft 388 kts 142°
2026-05-05 05:37 34.99750 -119.74435 24882 ft 401 kts 142°
2026-05-05 05:37 34.97608 -119.72238 24543 ft 400 kts 142°
2026-05-05 05:38 34.95486 -119.70060 24060 ft 395 kts 142°
2026-05-05 05:38 34.93405 -119.67926 23500 ft 392 kts 142°
2026-05-05 05:38 34.91331 -119.65802 22930 ft 388 kts 142°
2026-05-05 05:38 34.89291 -119.63705 22383 ft 385 kts 141°
2026-05-05 05:39 34.87389 -119.61452 22013 ft 378 kts 135°
2026-05-05 05:39 34.85672 -119.59065 21652 ft 371 kts 132°
2026-05-05 05:39 34.84036 -119.56677 21108 ft 369 kts 131°
2026-05-05 05:39 34.82500 -119.54404 20600 ft 367 kts 131°
2026-05-05 05:40 34.80878 -119.52002 20072 ft 364 kts 131°
2026-05-05 05:40 34.79293 -119.49653 19552 ft 362 kts 131°
2026-05-05 05:40 34.77716 -119.47313 19081 ft 358 kts 131°
2026-05-05 05:40 34.76160 -119.44974 18994 ft 352 kts 130°
2026-05-05 05:41 34.74630 -119.42638 18995 ft 358 kts 130°
2026-05-05 05:41 34.73076 -119.40259 18796 ft 359 kts 130°
2026-05-05 05:41 34.71529 -119.37889 18245 ft 358 kts 130°
2026-05-05 05:41 34.69981 -119.35523 17706 ft 356 kts 130°
2026-05-05 05:42 34.68441 -119.33171 17154 ft 355 kts 130°
2026-05-05 05:42 34.66913 -119.30841 16623 ft 353 kts 130°
2026-05-05 05:42 34.65394 -119.28528 16104 ft 350 kts 130°
2026-05-05 05:42 34.63940 -119.26176 15629 ft 348 kts 126°
2026-05-05 05:43 34.62661 -119.23689 15138 ft 345 kts 122°
2026-05-05 05:43 34.61461 -119.21198 14627 ft 344 kts 122°
2026-05-05 05:43 34.60253 -119.18694 14117 ft 342 kts 122°
2026-05-05 05:43 34.59055 -119.16238 13624 ft 339 kts 122°
2026-05-05 05:44 34.57851 -119.13787 13128 ft 337 kts 122°
2026-05-05 05:44 34.56791 -119.11249 12634 ft 336 kts 114°
2026-05-05 05:44 34.55950 -119.08628 12169 ft 334 kts 111°
2026-05-05 05:44 34.55042 -119.06097 11936 ft 319 kts 119°
2026-05-05 05:45 34.53752 -119.03998 11873 ft 302 kts 139°
2026-05-05 05:45 34.52085 -119.02511 11482 ft 299 kts 149°
2026-05-05 05:45 34.50318 -119.01164 10997 ft 300 kts 149°
2026-05-05 05:45 34.48571 -118.99804 10591 ft 299 kts 148°
2026-05-05 05:46 34.46855 -118.98431 10201 ft 297 kts 147°
2026-05-05 05:46 34.45153 -118.97052 9932 ft 290 kts 148°
2026-05-05 05:46 34.43496 -118.95709 9851 ft 277 kts 148°
2026-05-05 05:46 34.41918 -118.94440 9546 ft 274 kts 148°
2026-05-05 05:47 34.40336 -118.93169 9135 ft 275 kts 148°
2026-05-05 05:47 34.38734 -118.91878 8784 ft 274 kts 147°
2026-05-05 05:47 34.37180 -118.90565 8435 ft 272 kts 142°
2026-05-05 05:47 34.35754 -118.89060 8092 ft 271 kts 139°
2026-05-05 05:48 34.34380 -118.87544 7756 ft 269 kts 139°
2026-05-05 05:48 34.32996 -118.86026 7422 ft 267 kts 139°
2026-05-05 05:48 34.31623 -118.84521 7261 ft 258 kts 139°
2026-05-05 05:48 34.30325 -118.83097 7187 ft 246 kts 139°
2026-05-05 05:49 34.29082 -118.81735 7058 ft 237 kts 139°
2026-05-05 05:49 34.27875 -118.80412 6799 ft 236 kts 139°
2026-05-05 05:49 34.26747 -118.79001 6509 ft 233 kts 128°
2026-05-05 05:49 34.25986 -118.77284 6205 ft 230 kts 114°
2026-05-05 05:50 34.25381 -118.75497 5903 ft 225 kts 113°
2026-05-05 05:50 34.24770 -118.73785 5676 ft 221 kts 115°
2026-05-05 05:50 34.24149 -118.72101 5450 ft 222 kts 114°
2026-05-05 05:50 34.23523 -118.70393 5218 ft 220 kts 114°
2026-05-05 05:51 34.22901 -118.68702 4992 ft 220 kts 115°
2026-05-05 05:51 34.22283 -118.67028 4771 ft 220 kts 114°
2026-05-05 05:51 34.21660 -118.65338 4562 ft 216 kts 114°
2026-05-05 05:51 34.21048 -118.63677 4412 ft 215 kts 115°
2026-05-05 05:52 34.20430 -118.62026 4260 ft 214 kts 113°
2026-05-05 05:52 34.20105 -118.60343 4115 ft 204 kts 94°
2026-05-05 05:52 34.20056 -118.58670 3965 ft 197 kts 92°
2026-05-05 05:52 34.20021 -118.57034 3823 ft 189 kts 90°
2026-05-05 05:53 34.20006 -118.55479 3701 ft 183 kts 90°
2026-05-05 05:53 34.19988 -118.53921 3606 ft 186 kts 90°
2026-05-05 05:53 34.19972 -118.52391 3348 ft 180 kts 90°
2026-05-05 05:53 34.19957 -118.50951 3094 ft 165 kts 91°
2026-05-05 05:54 34.19941 -118.49626 2864 ft 150 kts 91°
2026-05-05 05:54 34.19928 -118.48427 2677 ft 140 kts 91°
2026-05-05 05:54 34.19915 -118.47250 2499 ft 140 kts 92°
2026-05-05 05:54 34.19901 -118.46079 2298 ft 141 kts 91°
2026-05-05 05:55 34.19888 -118.44907 2117 ft 138 kts 92°
2026-05-05 05:55 34.19875 -118.43753 1932 ft 137 kts 91°
2026-05-05 05:55 34.19858 -118.42615 1749 ft 136 kts 91°
2026-05-05 05:55 34.19845 -118.41476 1566 ft 136 kts 92°
2026-05-05 05:56 34.19844 -118.40339 1389 ft 136 kts 91°
2026-05-05 05:56 34.19826 -118.39191 1194 ft 136 kts 91°
2026-05-05 05:56 34.19814 -118.38058 1021 ft 135 kts 92°
2026-05-05 05:56 34.19796 -118.36923 831 ft 136 kts 92°
2026-05-05 05:57 34.19775 -118.35911 787 ft 82 kts 91°
2026-05-05 05:57 34.19772 -118.35533 786 ft 26 kts 91°
2026-05-05 05:57 34.19770 -118.35328 787 ft 22 kts 84°
2026-05-05 05:57 34.19843 -118.35189 787 ft 16 kts 45°
2026-05-05 05:58 34.19875 -118.35111 787 ft 3 kts 89°
2026-05-05 05:58 34.19875 -118.35110 787 ft 0 kts 89°
2026-05-05 05:58 34.19875 -118.35109 787 ft 0 kts 89°
2026-05-05 05:59 34.19875 -118.35104 787 ft 0 kts 89°
2026-05-05 05:59 34.19875 -118.35103 787 ft 1 kts 89°
2026-05-05 05:59 34.19875 -118.35075 787 ft 4 kts 89°
2026-05-05 05:59 34.19861 -118.35023 787 ft 8 kts 134°
2026-05-05 06:00 34.19791 -118.35008 787 ft 12 kts 182°
2026-05-05 06:00 34.19715 -118.35040 787 ft 10 kts 251°
2026-05-05 06:00 34.19714 -118.35118 786 ft 8 kts 271°
2026-05-05 06:00 34.19716 -118.35174 787 ft 5 kts 271°
2026-05-05 06:01 34.19716 -118.35205 786 ft 2 kts 271°
2026-05-05 06:01 34.19716 -118.35220 787 ft 1 kts 268°
2026-05-05 06:01 34.19709 -118.35235 786 ft 2 kts 213°
2026-05-05 06:01 34.19687 -118.35239 786 ft 1 kts 182°
2026-05-05 06:02 34.19682 -118.35239 786 ft 0 kts 181°